TUX1300 LMML-LICC

Flight info

Callsign TUX1300
Flight time 0h 32m
Altitude 12000
Route GZO N982 DIRKA/N0367F140 N982 NELDA
Aircraft A320/M-SDE3FGHIRWY/LB1

Departure

Time 2026-05-04 18:11
Airport Malta International Airport (LMML)

Arrival

Time 2026-05-04 18:43
Airport Catania-Fontanarossa Airport (LICC)
Time Latitude Longitude Altitude Speed Heading
2026-05-04 17:51 35.84811 14.49513 253 ft 0 kts
2026-05-04 18:06 35.84799 14.49446 253 ft 5 kts 264°
2026-05-04 18:06 35.84826 14.49398 253 ft 8 kts 311°
2026-05-04 18:06 35.84878 14.49338 254 ft 12 kts 315°
2026-05-04 18:07 35.84934 14.49252 254 ft 14 kts 294°
2026-05-04 18:07 35.84903 14.49146 255 ft 14 kts 245°
2026-05-04 18:07 35.84944 14.49040 255 ft 15 kts 310°
2026-05-04 18:07 35.84991 14.48918 256 ft 17 kts 284°
2026-05-04 18:08 35.85021 14.48774 258 ft 18 kts 289°
2026-05-04 18:08 35.85067 14.48629 259 ft 19 kts 307°
2026-05-04 18:08 35.85152 14.48493 261 ft 21 kts 306°
2026-05-04 18:08 35.85261 14.48359 261 ft 27 kts 314°
2026-05-04 18:09 35.85592 14.48047 262 ft 32 kts 342°
2026-05-04 18:09 35.85632 14.47904 264 ft 10 kts 218°
2026-05-04 18:10 35.85579 14.47953 263 ft 17 kts 131°
2026-05-04 18:10 35.85326 14.48278 261 ft 87 kts 135°
2026-05-04 18:10 35.84765 14.48970 255 ft 139 kts 135°
2026-05-04 18:10 35.84011 14.49885 628 ft 154 kts 136°
2026-05-04 18:11 35.83276 14.50802 1375 ft 152 kts 138°
2026-05-04 18:11 35.82447 14.51600 2014 ft 153 kts 151°
2026-05-04 18:11 35.81426 14.52188 2367 ft 173 kts 164°
2026-05-04 18:11 35.80172 14.52460 2676 ft 194 kts 179°
2026-05-04 18:12 35.78750 14.52245 3010 ft 218 kts 197°
2026-05-04 18:12 35.77309 14.51400 3442 ft 243 kts 216°
2026-05-04 18:12 35.76094 14.49850 4038 ft 260 kts 237°
2026-05-04 18:12 35.75149 14.47916 4903 ft 267 kts 239°
2026-05-04 18:13 35.74185 14.45931 5769 ft 273 kts 240°
2026-05-04 18:13 35.73213 14.43935 6631 ft 278 kts 240°
2026-05-04 18:13 35.72149 14.39420 8348 ft 279 kts 276°
2026-05-04 18:14 35.72644 14.37127 9211 ft 280 kts 297°
2026-05-04 18:14 35.73787 14.35194 10097 ft 281 kts 317°
2026-05-04 18:14 35.75418 14.33885 10876 ft 284 kts 336°
2026-05-04 18:15 35.79385 14.31988 11409 ft 329 kts 338°
2026-05-04 18:15 35.83833 14.29923 12095 ft 347 kts 338°
2026-05-04 18:15 35.86123 14.28854 12157 ft 362 kts 338°
2026-05-04 18:16 35.88514 14.27729 12159 ft 383 kts 338°
2026-05-04 18:16 35.91030 14.26542 12156 ft 389 kts 338°
2026-05-04 18:16 35.93563 14.25345 12155 ft 391 kts 338°
2026-05-04 18:17 35.98650 14.22942 12166 ft 392 kts 338°
2026-05-04 18:17 36.01214 14.21802 12163 ft 392 kts 343°
2026-05-04 18:17 36.06642 14.21219 12160 ft 396 kts
2026-05-04 18:18 36.09332 14.21774 12158 ft 397 kts
2026-05-04 18:18 36.12049 14.22392 12164 ft 397 kts
2026-05-04 18:18 36.14766 14.23012 12161 ft 397 kts
2026-05-04 18:18 36.17485 14.23631 12162 ft 397 kts
2026-05-04 18:19 36.22930 14.24853 12160 ft 398 kts
2026-05-04 18:19 36.25647 14.25461 12167 ft 398 kts
2026-05-04 18:19 36.28369 14.26077 12165 ft 398 kts
2026-05-04 18:20 36.31093 14.26699 12161 ft 397 kts
2026-05-04 18:20 36.33776 14.27312 12160 ft 398 kts
2026-05-04 18:20 36.36496 14.27932 12157 ft 398 kts
2026-05-04 18:20 36.39219 14.28551 12163 ft 398 kts
2026-05-04 18:21 36.41941 14.29168 12163 ft 398 kts
2026-05-04 18:21 36.44666 14.29784 12166 ft 398 kts
2026-05-04 18:21 36.47387 14.30400 12169 ft 398 kts
2026-05-04 18:21 36.50115 14.31022 12167 ft 398 kts
2026-05-04 18:22 36.52841 14.31644 12172 ft 398 kts
2026-05-04 18:22 36.55567 14.32267 12169 ft 398 kts
2026-05-04 18:22 36.58289 14.32889 12173 ft 398 kts
2026-05-04 18:22 36.60977 14.33500 12169 ft 398 kts
2026-05-04 18:23 36.63702 14.34120 12172 ft 398 kts
2026-05-04 18:23 36.66432 14.34741 12165 ft 398 kts
2026-05-04 18:23 36.69153 14.35356 12173 ft 398 kts
2026-05-04 18:23 36.71887 14.35976 12174 ft 399 kts
2026-05-04 18:24 36.74613 14.36596 12173 ft 399 kts
2026-05-04 18:24 36.77346 14.37222 12173 ft 399 kts
2026-05-04 18:24 36.80075 14.37849 12177 ft 399 kts
2026-05-04 18:24 36.82768 14.38469 12175 ft 399 kts
2026-05-04 18:25 36.85446 14.39403 12176 ft 402 kts 19°
2026-05-04 18:25 36.87957 14.40949 12167 ft 404 kts 30°
2026-05-04 18:25 36.90240 14.43007 12177 ft 406 kts 35°
2026-05-04 18:25 36.92491 14.45147 12176 ft 406 kts 35°
2026-05-04 18:26 36.94741 14.47273 12178 ft 406 kts 35°
2026-05-04 18:26 36.96995 14.49398 12176 ft 406 kts 35°
2026-05-04 18:26 36.99251 14.51523 12177 ft 406 kts 34°
2026-05-04 18:26 37.01506 14.53647 12204 ft 406 kts 34°
2026-05-04 18:27 37.03761 14.55772 12208 ft 406 kts 35°
2026-05-04 18:27 37.05982 14.57873 12206 ft 406 kts 35°
2026-05-04 18:27 37.08232 14.60005 12205 ft 406 kts 35°
2026-05-04 18:27 37.10483 14.62141 12197 ft 406 kts 35°
2026-05-04 18:28 37.12729 14.64276 12194 ft 406 kts 35°
2026-05-04 18:28 37.14979 14.66414 12194 ft 406 kts 35°
2026-05-04 18:28 37.17309 14.68394 12174 ft 402 kts 24°
2026-05-04 18:28 37.19929 14.69346 11594 ft 387 kts
2026-05-04 18:29 37.22534 14.69317 10937 ft 363 kts 354°
2026-05-04 18:29 37.24976 14.68994 10256 ft 345 kts 351°
2026-05-04 18:29 37.27309 14.68555 9596 ft 332 kts 349°
2026-05-04 18:29 37.29547 14.68111 8981 ft 320 kts 349°
2026-05-04 18:30 37.33070 14.65550 7917 ft 294 kts 296°
2026-05-04 18:30 37.33507 14.63177 7826 ft 270 kts 271°
2026-05-04 18:30 37.33341 14.60918 7760 ft 250 kts 261°
2026-05-04 18:31 37.33001 14.58831 7663 ft 242 kts 258°
2026-05-04 18:31 37.32648 14.56770 7546 ft 238 kts 259°
2026-05-04 18:31 37.32342 14.54751 7421 ft 233 kts 261°
2026-05-04 18:31 37.32081 14.52750 7304 ft 232 kts 262°
2026-05-04 18:32 37.31851 14.50743 7191 ft 232 kts 263°
2026-05-04 18:32 37.31884 14.48769 7071 ft 230 kts 289°
2026-05-04 18:32 37.32756 14.47134 6956 ft 229 kts 323°
2026-05-04 18:32 37.34216 14.46397 6833 ft 230 kts 354°
2026-05-04 18:33 37.35818 14.46237 6718 ft 231 kts 354°
2026-05-04 18:33 37.37418 14.46020 6599 ft 232 kts 353°
2026-05-04 18:33 37.39021 14.45819 6466 ft 232 kts
2026-05-04 18:33 37.40541 14.46400 6341 ft 231 kts 36°
2026-05-04 18:34 37.41518 14.47964 6209 ft 231 kts 71°
2026-05-04 18:34 37.41780 14.49947 6084 ft 231 kts 84°
2026-05-04 18:34 37.41947 14.51959 5953 ft 231 kts 84°
2026-05-04 18:34 37.42118 14.53943 5826 ft 231 kts 84°
2026-05-04 18:35 37.42293 14.55947 5699 ft 230 kts 84°
2026-05-04 18:35 37.42467 14.57941 5572 ft 229 kts 84°
2026-05-04 18:35 37.42643 14.59939 5311 ft 229 kts 84°
2026-05-04 18:35 37.42818 14.61921 5066 ft 227 kts 84°
2026-05-04 18:36 37.42991 14.63889 4816 ft 225 kts 84°
2026-05-04 18:36 37.43163 14.65843 4559 ft 224 kts 84°
2026-05-04 18:36 37.43334 14.67789 4308 ft 224 kts 84°
2026-05-04 18:36 37.43505 14.69734 4056 ft 223 kts 84°
2026-05-04 18:37 37.43672 14.71645 3811 ft 223 kts 84°
2026-05-04 18:37 37.43841 14.73581 3559 ft 222 kts 84°
2026-05-04 18:37 37.44009 14.75513 3319 ft 222 kts 84°
2026-05-04 18:37 37.44177 14.77441 3086 ft 222 kts 84°
2026-05-04 18:38 37.44342 14.79343 2997 ft 213 kts 84°
2026-05-04 18:38 37.44499 14.81151 3003 ft 205 kts 84°
2026-05-04 18:38 37.44652 14.82921 3006 ft 202 kts 84°
2026-05-04 18:38 37.44804 14.84674 3006 ft 201 kts 84°
2026-05-04 18:39 37.44954 14.86425 2947 ft 198 kts 83°
2026-05-04 18:39 37.45098 14.88092 2737 ft 191 kts 84°
2026-05-04 18:39 37.45238 14.89725 2493 ft 183 kts 83°
2026-05-04 18:39 37.45372 14.91284 2257 ft 174 kts 83°
2026-05-04 18:40 37.45494 14.92717 2032 ft 157 kts 83°
2026-05-04 18:40 37.45607 14.94062 1795 ft 152 kts 83°
2026-05-04 18:40 37.45714 14.95298 1639 ft 151 kts 83°
2026-05-04 18:40 37.45822 14.96607 1475 ft 150 kts 83°
2026-05-04 18:41 37.45938 14.97900 1308 ft 148 kts 83°
2026-05-04 18:41 37.46046 14.99191 1165 ft 148 kts 83°
2026-05-04 18:41 37.46152 15.00463 1016 ft 145 kts 83°
2026-05-04 18:41 37.46257 15.01697 755 ft 143 kts 81°
2026-05-04 18:42 37.46366 15.02951 537 ft 146 kts 83°
2026-05-04 18:42 37.46480 15.04230 308 ft 147 kts 81°
2026-05-04 18:42 37.46588 15.05507 67 ft 147 kts 83°
2026-05-04 18:42 37.46683 15.06612 37 ft 82 kts 85°
2026-05-04 18:43 37.46735 15.06984 34 ft 17 kts 40°
2026-05-04 18:43 37.46792 15.06971 33 ft 6 kts 320°
2026-05-04 18:43 37.46814 15.06948 33 ft 6 kts 317°
2026-05-04 18:43 37.46844 15.06885 32 ft 8 kts 288°
2026-05-04 18:44 37.46856 15.06834 32 ft 10 kts 283°
2026-05-04 18:44 37.46856 15.06774 33 ft 11 kts 266°
2026-05-04 18:44 37.46878 15.06688 34 ft 7 kts 358°
2026-05-04 18:44 37.46933 15.06684 32 ft 0 kts 356°